Flag for Germany Weather past 2 weeks in Eberswalde, Brandenburg, Germany

Now
66 °F

Passing clouds.


Feels Like: 66 °F
Forecast: 47 / 64 °F
Wind: 6 mph from Southwest

Location: Berlin-Tegel

Current Time: May 22, 2015 at 3:57:23 PM

Latest Report: May 22, 2015 at 3:20 PM


Visibility: N/A

Pressure: 30.24 "Hg

Humidity: 32%

Dew point: 36 °F

Location of EberswaldeLocation

Historic Weather in Eberswalde — Graph

°F

Eberswalde temperature yesterday

Maximum temperature yesterday: 63 °F (at 2:50 PM)
Minimum temperature yesterday: 41 °F (at 3:50 AM)
Average temperature yesterday: 54 °F

Past Weeks' High & Low Weather Summary

 TemperatureHumidityPressure
High82 °F (May 12, 3:50 PM)100% (May 15, 1:50 AM)30.39 "Hg (May 15, 1:50 AM)
Low37 °F (May 15, 5:50 AM)23% (May 11, 5:50 PM)29.56 "Hg (May 19, 3:50 AM)
Average55 °F62%30.03 "Hg
* Reported May 7 2:20 PM — May 22 2:20 PM, Eberswalde, Weather by CustomWeather, © 2015

Note: Actual official high and low records may vary slightly from our data, if they occured in-between our weather recording intervals... More about our weather records

Advertising

Eberswalde weather history for previous 24 hours

 ConditionsComfort  
Time TempWeatherWind HumidityBarometerVisibility
2:20 PM
Fri, May 22
66 °FPassing clouds.6 mph32%30.24 "HgN/A
1:50 PM64 °FPassing clouds.5 mph32%30.24 "HgN/A
1:20 PM64 °FSunny.8 mph37%30.27 "Hg10 mi
12:50 PM64 °FSunny.7 mph34%30.27 "Hg10 mi
12:20 PM63 °FPassing clouds.6 mph37%30.27 "HgN/A
11:50 AM63 °FSunny.9 mph37%30.27 "Hg10 mi
11:20 AM63 °FSunny.8 mph39%30.30 "Hg10 mi
10:50 AM61 °FPassing clouds.6 mph42%30.30 "HgN/A
10:20 AM61 °FSunny.6 mph39%30.30 "Hg10 mi
9:50 AM59 °FPassing clouds.6 mph48%30.30 "HgN/A
9:20 AM57 °FSunny.6 mph51%30.30 "Hg10 mi
8:50 AM55 °FSunny.2 mph63%30.30 "Hg10 mi
8:20 AM55 °FSunny.1 mph63%30.30 "Hg10 mi
7:50 AM52 °FSunny.2 mph72%30.30 "Hg10 mi
7:20 AM50 °FSunny.3 mph76%30.30 "Hg10 mi
6:50 AM46 °FSunny.1 mph87%30.30 "Hg10 mi
6:20 AM45 °FSunny.No wind87%30.30 "Hg10 mi
5:50 AM41 °FClear.No wind93%30.30 "Hg10 mi
5:20 AM41 °FFog.No wind93%30.30 "HgN/A
4:50 AM41 °FFog.1 mph93%30.30 "HgN/A
4:20 AM41 °FFog.1 mph93%30.30 "HgN/A
3:50 AM41 °FFog.1 mph93%30.30 "HgN/A
3:20 AM43 °FClear.1 mph87%30.30 "Hg10 mi
2:50 AM43 °FClear.1 mph87%30.30 "Hg10 mi
2:20 AM43 °FClear.1 mph87%30.30 "Hg10 mi
1:50 AM45 °FClear.1 mph81%30.30 "Hg10 mi
1:20 AM45 °FClear.1 mph76%30.30 "Hg10 mi
12:50 AM45 °FClear.2 mph81%30.30 "Hg10 mi
12:20 AM45 °FClear.3 mph81%30.30 "Hg10 mi
11:20 PM
Thu, May 21
48 °FClear.3 mph71%30.27 "Hg10 mi
10:50 PM52 °FClear.3 mph62%30.27 "Hg10 mi
10:20 PM52 °FClear.5 mph62%30.27 "Hg10 mi
9:50 PM54 °FSunny.5 mph58%30.27 "Hg10 mi
9:20 PM54 °FSunny.6 mph54%30.27 "Hg10 mi
8:50 PM55 °FSunny.6 mph51%30.24 "Hg10 mi
8:20 PM57 °FSunny.10 mph41%30.24 "Hg10 mi
7:50 PM59 °FSunny.12 mph39%30.24 "Hg10 mi
7:20 PM61 °FSunny.9 mph36%30.24 "Hg10 mi
6:50 PM63 °FPassing clouds.7 mph34%30.21 "HgN/A
6:20 PM61 °FSunny.8 mph36%30.21 "Hg10 mi
5:50 PM61 °FSunny.9 mph39%30.21 "Hg10 mi
5:20 PM61 °FPassing clouds.6 mph39%30.21 "HgN/A
4:50 PM63 °FPassing clouds.8 mph37%30.21 "HgN/A
4:20 PM61 °FPassing clouds.9 mph36%30.21 "HgN/A
3:50 PM63 °FPassing clouds.9 mph34%30.21 "HgN/A
3:20 PM61 °FPassing clouds.8 mph39%30.21 "HgN/A
Weather by CustomWeather, © 2015

See weather overviewHow to use our weather pages